Starlink 35775

operational
NORAD ID: 67038 Int'l Des: 2025-294 Owner: SPXS Country: US Constellation: starlink
NOTLE

关于 Starlink 35775

正在加载描述...

实时位置

正在加载3D地球...

即将过境

高度历史

Altitude vs Time

uPlot chart will show altitude changes over time

两行轨道根数

1 67038C 25294J 25346.87826389 .01016000 00000+0 14713-2 0 3468
2 67038 43.0026 182.4926 0009173 283.6290 342.3613 16.03201170 17
Epoch: Dec 12, 2025 • Age: 57 hours

当前状态

高度 261.7 km
速度 7.75 km/s
星下点 -24.77°S, 168.36°E
发射日期 Dec 11, 2025
运行时间 2 days
类型 internet

技术详情

分类 Payload
质量 575.00 kg
干质量 530.00 kg
总质量 575.00 kg
长度 0.30 m
直径 4.10 m
跨度 29.00 m
形状 Box + pan
制造商 SPXS
平台类型 Starlink V2MO
阶段状态 In Orbit
所有者/国家 SPXS/US

大型星座

Loading constellations...